This is the latest recevied weather packets stored in our database for station/object KG4LKY-5. If no packets are shown the sender has not sent any weather packets the latest 10 day(s).
| Time | Temp. | Humidity | Pressure | Rain* | Wind** | Luminosity | Snow |
|---|---|---|---|---|---|---|---|
| 1777826945 | 14.44° C | 25% | 1021.1 hPa | 0 mm | - | - | - |
| 1777826344 | 13.89° C | 28% | 1021.3 hPa | 0 mm | - | - | - |
| 1777826044 | 15° C | 34% | 1021.4 hPa | 0 mm | - | - | - |
| 1777825744 | 13.89° C | 26% | 1021.4 hPa | 0 mm | - | - | - |
| 1777825443 | 12.78° C | 31% | 1021.5 hPa | 0 mm | - | - | - |
| 1777825143 | 13.89° C | 31% | 1021.6 hPa | 0 mm | - | - | - |
| 1777824843 | 13.89° C | 31% | 1021.7 hPa | 0 mm | - | - | - |
| 1777824542 | 13.89° C | 31% | 1021.8 hPa | 0 mm | - | - | - |
| 1777824242 | 12.22° C | 29% | 1021.8 hPa | 0 mm | - | - | - |
| 1777823341 | 12.78° C | 31% | 1022 hPa | 0 mm | - | - | - |
| 1777823041 | 12.22° C | 33% | 1022.1 hPa | 0 mm | - | - | - |
| 1777822741 | 12.78° C | 35% | 1022.1 hPa | 0 mm | - | - | - |
| 1777822440 | 11.67° C | 37% | 1022.2 hPa | 0 mm | - | - | - |
| 1777822140 | 12.22° C | 35% | 1022.2 hPa | 0 mm | - | - | - |
| 1777821840 | 11.11° C | 37% | 1022.1 hPa | 0 mm | - | - | - |
| 1777821539 | 11.67° C | 37% | 1022.1 hPa | 0 mm | - | - | - |
| 1777821239 | 12.22° C | 39% | 1022.1 hPa | 0 mm | - | - | - |
| 1777820939 | 11.11° C | 41% | 1022.1 hPa | 0 mm | - | - | - |
| 1777820638 | 10.56° C | 35% | 1022.1 hPa | 0 mm | - | - | - |
| 1777820338 | 10.56° C | 35% | 1022.1 hPa | 0 mm | - | - | - |
| 1777820036 | 10.56° C | 34% | 1022.1 hPa | 0 mm | - | - | - |
| 1777819434 | 10.56° C | 37% | 1022.1 hPa | 0 mm | - | - | - |
| 1777818834 | 8.89° C | 42% | 1022.1 hPa | 0 mm | - | - | - |
| 1777818534 | 9.44° C | 42% | 1022.1 hPa | 0 mm | - | - | - |
| 1777818234 | 10° C | 38% | 1022.1 hPa | 0 mm | - | - | - |
* Rain since midnight (hover to see other rain measurements)
** Current wind speed in m/s (hover to see current wind gust speed)